Lunenburg, Nouvelle Écosse

Conditions des dernières 24 heures

Date / Heure
(HAA)
Conditions Temp
(°C)
Humidité
(%)
Point de rosée
(°C)
Vent
(km/h)
Pression
(kPa)
Visibilité
(km)
01 novembre 2014
6:00 N.D. 8 80 5 ENE 19 rafale 29 101,5 N.D.
5:00 N.D. 9 73 4 ENE 24 101,5 N.D.
4:00 N.D. 10 79 6 ENE 23 rafale 31 101,6 N.D.
3:00 N.D. 11 79 7 E 28 101,6 N.D.
2:00 N.D. 11 78 7 E 24 101,7 N.D.
1:00 N.D. 11 74 6 E 19 rafale 29 101,8 N.D.
0:00 N.D. 11 75 6 E 26 rafale 35 101,8 N.D.
31 octobre 2014
23:00 N.D. 11 67 6 E 24 rafale 34 101,7 N.D.
22:00 N.D. 12   66 6 ESE 23 101,8 N.D.
21:00 N.D. 11 66 5 E 11 101,8 N.D.
20:00 N.D. 11 66 5 E 15 101,8 N.D.
19:00 N.D. 11 68 6 E 17 101,8 N.D.
18:00 N.D. 12   66 6 ESE 21 101,8 N.D.
17:00 N.D. 12   64 5 SE 15 101,7 N.D.
16:00 N.D. 12   62 5 SE 14 101,7 N.D.
15:00 N.D. 12   61 4 ESE 18 101,7 N.D.
14:00 N.D. 12   61 4 SE 18 101,7 N.D.
13:00 N.D. 11 62 4 ESE 16 101,7 N.D.
12:00 N.D. 11 58 3 E 12 101,8 N.D.
11:00 N.D. 10 70 5 NE 9 101,8 N.D.
10:00 N.D. 8 82 5 N 6 101,7 N.D.
9:00 N.D. 6 86 4 NNO 7 101,7 N.D.
8:00 N.D. 5   88 4 N 7 101,6 N.D.
7:00 N.D. 6 90 5 NNO 6 101,6 N.D.
6:00 N.D. 6 90 5 N 11 101,5 N.D.
N.D. non disponible
↑ température la plus haute
↓ température la plus basse

Si vous désirez plus de données historiques sur les conditions météo, s.v.p. visitez Données climatologiques en ligne.

Date de modification :